Monroe, WI

11:41 PM CDT on October 22, 2019 (GMT -0500)
Monroe Municipal

Weather History for KEFT - August, 2019

Change the Weather History Date:

Sunday, August 18, 2019

  Actual Average Record
Temperature  
Mean Temperature 70 °F -  
Max Temperature 78 °F 89 °F 89 °F (1966)
Min Temperature 63 °F 66 °F 51 °F (2002)
Cooling Degree Days 5    
Growing Degree Days 20 (Base 50)    
Moisture  
Dew Point 64 °F    
Average Humidity 81    
Maximum Humidity 97    
Minimum Humidity 58    
Precipitation  
Precipitation 0.78 in - - ()
Sea Level Pressure  
Sea Level Pressure 29.84 in    
Wind  
Wind Speed 9 mph (WSW)    
Max Wind Speed 24 mph    
Max Gust Speed 34 mph    
Visibility 10 miles    
Events Rain , Thunderstorm    
Averages and records for this station are not official NWS values.
T = Trace of Precipitation, MM = Missing Value Source: NWS Daily Summary

Daily Weather History Graph

Daily Weather History Graph

Search for Another Location

Airport or City:

Astronomy

Aug. 18, 2019 Rise Set
Actual Time 6:08 AM CDT 7:55 PM CDT
Civil Twilight 5:37 AM CDT 8:25 PM CDT
Nautical Twilight 5:01 AM CDT 9:02 PM CDT
Astronomical Twilight 4:21 AM CDT 9:41 PM CDT
Moon 9:46 PM CDT (8/18) 8:55 AM CDT (8/18)
Length of Visible Light 14h 47m
Length of Day
13h 47m
Waning Gibbous, 91% of the Moon is Illuminated
Aug 18
Waning Gibbous
Aug 23
Last Quarter
Aug 30
New
Sep 5
First Quarter
Sep 13
Full

Hourly Weather History & Observations

Time (CDT) Temp. Dew Point Humidity Pressure Visibility Wind Dir Wind Speed Gust Speed Precip Events Conditions
12:15 AM 69.1 °F 66.7 °F 92% 29.87 in 10.0 mi South 8.1 mph - N/A   Clear
12:35 AM 68.9 °F 66.6 °F 92% 29.86 in 10.0 mi South 6.9 mph - N/A   Clear
12:55 AM 68.4 °F 66.4 °F 93% 29.85 in 10.0 mi South 6.9 mph - N/A   Clear
1:15 AM 68.0 °F 66.0 °F 93% 29.85 in 10.0 mi SSW 5.8 mph - N/A   Clear
1:35 AM 68.0 °F 65.8 °F 93% 29.86 in 10.0 mi WSW 8.1 mph - N/A Thunderstorm Scattered Clouds
1:55 AM 68.9 °F 66.7 °F 93% 29.84 in 10.0 mi South 10.4 mph - N/A Thunderstorm Mostly Cloudy
2:15 AM 68.5 °F 66.7 °F 94% 29.84 in 10.0 mi SSW 10.4 mph - N/A Rain , Thunderstorm Light Thunderstorms and Rain
2:35 AM 68.9 °F 67.3 °F 95% 29.82 in 10.0 mi South 9.2 mph - N/A Rain Light Rain
2:55 AM 68.9 °F 67.3 °F 95% 29.84 in 10.0 mi South 4.6 mph - N/A   Light Drizzle
3:15 AM 68.2 °F 67.1 °F 96% 29.82 in 10.0 mi South 8.1 mph - N/A   Overcast
3:35 AM 68.2 °F 67.1 °F 96% 29.81 in 10.0 mi South 8.1 mph - N/A   Mostly Cloudy
3:55 AM 68.0 °F 67.1 °F 97% 29.78 in 7.0 mi South 11.5 mph - N/A   Scattered Clouds
4:15 AM 68.2 °F 67.1 °F 96% 29.73 in 7.0 mi SSE 16.1 mph - N/A   Clear
4:35 AM 68.9 °F 67.6 °F 96% 29.75 in 10.0 mi South 13.8 mph - N/A   Clear
4:55 AM 68.9 °F 67.5 °F 95% 29.74 in 10.0 mi South 13.8 mph - N/A   Clear
5:15 AM 68.9 °F 67.8 °F 96% 29.75 in 10.0 mi South 12.7 mph - N/A   Clear
5:35 AM 69.6 °F 68.4 °F 96% 29.74 in 10.0 mi South 15.0 mph - N/A   Clear
5:55 AM 70.5 °F 69.3 °F 96% 29.75 in 10.0 mi South 12.7 mph 18.4 mph N/A   Mostly Cloudy
6:15 AM 65.8 °F 63.3 °F 92% 29.83 in 1.2 mi West 15.0 mph 23.0 mph 0.03 in Rain , Thunderstorm Heavy Thunderstorms and Rain
6:35 AM 64.6 °F 63.1 °F 95% 29.84 in 5.0 mi West 11.5 mph - 0.09 in Rain , Thunderstorm Heavy Thunderstorms and Rain
6:55 AM 63.9 °F 62.6 °F 96% 29.84 in 7.0 mi WNW 9.2 mph - 0.14 in Rain , Thunderstorm Thunderstorms and Rain
7:15 AM 64.0 °F 62.6 °F 95% 29.87 in 7.0 mi North - - 0.05 in Rain , Thunderstorm Light Thunderstorms and Rain
7:35 AM 63.7 °F 62.2 °F 95% 29.86 in 7.0 mi West 10.4 mph - 0.10 in Rain , Thunderstorm Thunderstorms and Rain
7:55 AM 64.0 °F 62.2 °F 94% 29.87 in 7.0 mi West 10.4 mph 17.3 mph 0.15 in Rain , Thunderstorm Rain
8:15 AM 64.6 °F 62.6 °F 93% 29.86 in 10.0 mi SW 6.9 mph - 0.04 in Rain Light Rain
8:35 AM 64.6 °F 63.0 °F 94% 29.82 in 10.0 mi Calm Calm - 0.09 in   Light Drizzle
8:55 AM 64.6 °F 63.1 °F 95% 29.81 in 10.0 mi SSW 11.5 mph - 0.14 in   Clear
9:15 AM 64.8 °F 63.5 °F 96% 29.79 in 10.0 mi SW 16.1 mph 23.0 mph 0.04 in   Clear
9:35 AM 65.7 °F 63.5 °F 93% 29.75 in 10.0 mi WSW 16.1 mph 26.5 mph 0.08 in   Clear
9:55 AM 68.5 °F 62.1 °F 80% 29.71 in 10.0 mi SW 24.2 mph 34.5 mph 0.12 in   Clear
10:15 AM 71.4 °F 59.9 °F 67% 29.67 in 10.0 mi West 18.4 mph 24.2 mph 0.04 in   Clear
10:35 AM 71.6 °F 61.2 °F 70% 29.68 in 10.0 mi West 10.4 mph 19.6 mph 0.08 in   Clear
10:55 AM 72.7 °F 60.8 °F 66% 29.75 in 10.0 mi WSW 23.0 mph 31.1 mph 0.11 in   Clear
11:15 AM 71.1 °F 61.3 °F 71% 29.78 in 10.0 mi West 20.7 mph 24.2 mph 0.03 in   Clear
11:35 AM 71.2 °F 60.6 °F 69% 29.79 in 10.0 mi WSW 12.7 mph 17.3 mph 0.06 in   Clear
11:55 AM 71.1 °F 61.2 °F 71% 29.80 in 10.0 mi West 8.1 mph - 0.09 in   Clear
12:15 PM 71.6 °F 61.7 °F 71% 29.83 in 10.0 mi WSW 10.4 mph - 0.02 in   Clear
12:35 PM 72.7 °F 61.7 °F 68% 29.83 in 10.0 mi West 13.8 mph 18.4 mph 0.03 in   Clear
12:55 PM 73.2 °F 61.7 °F 67% 29.83 in 10.0 mi West 8.1 mph - 0.03 in   Scattered Clouds
1:15 PM 73.8 °F 61.3 °F 65% 29.84 in 10.0 mi West 11.5 mph - N/A   Scattered Clouds
1:35 PM 73.6 °F 61.0 °F 65% 29.84 in 10.0 mi WNW 9.2 mph - N/A   Scattered Clouds
1:55 PM 75.2 °F 61.5 °F 62% 29.84 in 10.0 mi NW 5.8 mph - N/A   Scattered Clouds
2:15 PM 76.1 °F 61.5 °F 60% 29.84 in 10.0 mi NNW 10.4 mph - N/A   Scattered Clouds
2:35 PM 76.1 °F 61.3 °F 60% 29.84 in 10.0 mi NW 9.2 mph - N/A   Scattered Clouds
2:55 PM 76.8 °F 61.2 °F 58% 29.84 in 10.0 mi WNW 8.1 mph - N/A   Clear
3:15 PM 76.3 °F 61.9 °F 61% 29.85 in 10.0 mi NW 8.1 mph - N/A   Clear
3:35 PM 76.8 °F 61.3 °F 59% 29.85 in 10.0 mi NNW 4.6 mph - N/A   Clear
3:55 PM 77.7 °F 62.1 °F 58% 29.86 in 10.0 mi West 5.8 mph - N/A   Mostly Cloudy
4:35 PM 77.9 °F 62.1 °F 58% 29.87 in 10.0 mi West 10.4 mph - N/A   Mostly Cloudy
4:55 PM 77.5 °F 62.1 °F 59% 29.87 in 10.0 mi West 6.9 mph - N/A   Scattered Clouds
5:15 PM 77.4 °F 62.4 °F 60% 29.88 in 10.0 mi West 10.4 mph - N/A   Scattered Clouds
5:35 PM 77.4 °F 62.6 °F 60% 29.88 in 10.0 mi West 4.6 mph - N/A   Scattered Clouds
5:55 PM 75.7 °F 62.6 °F 64% 29.87 in 10.0 mi WSW 6.9 mph - N/A   Clear
6:15 PM 76.6 °F 62.2 °F 61% 29.87 in 10.0 mi West 9.2 mph - N/A   Clear
6:35 PM 76.6 °F 63.0 °F 62% 29.86 in 10.0 mi West 4.6 mph - N/A   Clear
6:55 PM 75.9 °F 63.9 °F 66% 29.87 in 10.0 mi West 6.9 mph - N/A   Clear
7:15 PM 74.3 °F 63.5 °F 69% 29.87 in 10.0 mi West 8.1 mph - N/A   Clear
7:35 PM 73.6 °F 63.5 °F 71% 29.87 in 10.0 mi WSW 5.8 mph - N/A   Clear
7:55 PM 72.9 °F 63.7 °F 73% 29.88 in 10.0 mi Calm Calm - N/A   Clear
8:15 PM 72.1 °F 63.7 °F 75% 29.89 in 10.0 mi Calm Calm - N/A   Clear
8:35 PM 71.4 °F 63.7 °F 76% 29.90 in 10.0 mi SSW 4.6 mph - N/A   Clear
8:55 PM 69.8 °F 64.4 °F 83% 29.90 in 10.0 mi SSW 4.6 mph - N/A   Clear
9:15 PM 68.0 °F 64.6 °F 89% 29.90 in 10.0 mi SSW 5.8 mph - N/A   Clear
9:35 PM 68.0 °F 65.3 °F 91% 29.91 in 10.0 mi SSW 5.8 mph - N/A   Clear
9:55 PM 68.2 °F 65.5 °F 91% 29.92 in 10.0 mi SSW 5.8 mph - N/A   Clear
10:15 PM 68.5 °F 65.5 °F 90% 29.92 in 10.0 mi SW 4.6 mph - N/A   Clear
10:35 PM 68.0 °F 65.3 °F 91% 29.92 in 10.0 mi SW 5.8 mph - N/A   Clear
10:55 PM 68.0 °F 65.3 °F 91% 29.93 in 10.0 mi SW 6.9 mph - N/A   Clear
11:15 PM 68.2 °F 64.9 °F 89% 29.93 in 10.0 mi SW 5.8 mph - N/A   Clear
11:35 PM 67.8 °F 64.8 °F 90% 29.93 in 10.0 mi SW 5.8 mph - N/A   Clear
11:55 PM 68.0 °F 64.4 °F 88% 29.93 in 10.0 mi SW 5.8 mph - N/A   Clear